| time (UTC) | temp C | wind direction | speed KPH | gust KPH | rain 1hr cm | rain 24hr cm | rain mn cm | humidity % | barometer mb |
| 20260507195816 | 27 | 153 | 9.7 | 25.7 | 0.00 | 0.00 | 0.00 | 78 | 1025.3 |
| 20260507195316 | 27 | 150 | 12.9 | 25.7 | 0.00 | 0.00 | 0.00 | 78 | 1025.3 |
| 20260507193746 | 27 | 175 | 12.9 | 25.7 | 0.00 | 0.00 | 0.00 | 77 | 1025.6 |
| 20260507193246 | 27 | 152 | 11.3 | 25.7 | 0.00 | 0.00 | 0.00 | 78 | 1025.5 |
| 20260507192746 | 27 | 119 | 11.3 | 25.7 | 0.00 | 0.00 | 0.00 | 77 | 1025.6 |
| 20260507192246 | 27 | 167 | 12.9 | 25.7 | 0.00 | 0.00 | 0.00 | 76 | 1025.5 |
| 20260507191745 | 27 | 142 | 11.3 | 25.7 | 0.00 | 0.00 | 0.00 | 78 | 1025.6 |
| 20260507191245 | 27 | 177 | 11.3 | 25.7 | 0.00 | 0.00 | 0.00 | 77 | 1025.7 |
| 20260507190745 | 27 | 173 | 9.7 | 25.7 | 0.00 | 0.00 | 0.00 | 77 | 1025.8 |
| 20260507184659 | 28 | 141 | 11.3 | 25.7 | 0.00 | 0.00 | 0.00 | 76 | 1025.6 |
| 20260507184159 | 28 | 130 | 12.9 | 25.7 | 0.00 | 0.00 | 0.00 | 76 | 1025.8 |
| 20260507183659 | 28 | 221 | 12.9 | 25.7 | 0.00 | 0.00 | 0.00 | 75 | 1025.9 |
| 20260507183159 | 28 | 154 | 12.9 | 25.7 | 0.00 | 0.00 | 0.00 | 76 | 1025.9 |
| 20260507182658 | 28 | 184 | 12.9 | 25.7 | 0.00 | 0.00 | 0.00 | 77 | 1026.2 |
| 20260507182158 | 28 | 209 | 16.1 | 25.7 | 0.00 | 0.00 | 0.00 | 76 | 1026.1 |
| 20260507181658 | 28 | 185 | 16.1 | 25.7 | 0.00 | 0.00 | 0.00 | 76 | 1026.0 |
| 20260507181158 | 28 | 203 | 16.1 | 25.7 | 0.00 | 0.00 | 0.00 | 76 | 1026.2 |
| 20260507180658 | 28 | 186 | 14.5 | 25.7 | 0.00 | 0.00 | 0.00 | 76 | 1026.1 |
| 20260507180158 | 28 | 160 | 12.9 | 25.7 | 0.00 | 0.00 | 0.00 | 75 | 1026.1 |
| 20260507175658 | 28 | 165 | 11.3 | 25.7 | 0.00 | 0.00 | 0.00 | 75 | 1026.3 |
| 20260507175157 | 28 | 169 | 11.3 | 25.7 | 0.00 | 0.00 | 0.00 | 75 | 1026.5 |
| 20260507173112 | 29 | 140 | 9.7 | 25.7 | 0.00 | 0.00 | 0.00 | 75 | 1026.8 |
| 20260507172611 | 29 | 144 | 9.7 | 25.7 | 0.00 | 0.00 | 0.00 | 74 | 1026.8 |
| 20260507172111 | 29 | 125 | 9.7 | 25.7 | 0.00 | 0.00 | 0.00 | 75 | 1026.7 |
| 20260507171056 | 29 | 161 | 9.7 | 25.7 | 0.00 | 0.00 | 0.00 | 75 | 1026.8 |
| 20260507170555 | 29 | 141 | 11.3 | 25.7 | 0.00 | 0.00 | 0.00 | 73 | 1026.9 |
| 20260507170055 | 29 | 134 | 9.7 | 25.7 | 0.00 | 0.00 | 0.00 | 74 | 1027.0 |
| 20260507165555 | 29 | 104 | 11.3 | 25.7 | 0.00 | 0.00 | 0.00 | 75 | 1027.0 |
| 20260507165055 | 29 | 121 | 11.3 | 25.7 | 0.00 | 0.00 | 0.00 | 74 | 1027.0 |
| 20260507164555 | 29 | 137 | 12.9 | 25.7 | 0.00 | 0.00 | 0.00 | 74 | 1027.1 |
| 20260507164055 | 29 | 104 | 11.3 | 25.7 | 0.00 | 0.00 | 0.00 | 75 | 1027.3 |
| 20260507163040 | 29 | 150 | 11.3 | 25.7 | 0.00 | 0.00 | 0.00 | 75 | 1027.4 |
| 20260507162540 | 29 | 193 | 14.5 | 25.7 | 0.00 | 0.00 | 0.00 | 73 | 1027.2 |
| 20260507162040 | 29 | 204 | 12.9 | 25.7 | 0.00 | 0.00 | 0.00 | 73 | 1027.5 |
| 20260507161540 | 29 | 117 | 11.3 | 25.7 | 0.00 | 0.00 | 0.00 | 74 | 1027.4 |
| 20260507161041 | 29 | 116 | 12.9 | 25.7 | 0.00 | 0.00 | 0.00 | 73 | 1027.6 |
| 20260507160540 | 29 | 135 | 12.9 | 25.7 | 0.00 | 0.00 | 0.00 | 72 | 1027.8 |
| 20260507160040 | 29 | 148 | 12.9 | 25.7 | 0.00 | 0.00 | 0.00 | 74 | 1027.8 |
| 20260507155025 | 29 | 189 | 14.5 | 25.7 | 0.00 | 0.00 | 0.00 | 74 | 1027.8 |
| 20260507154525 | 29 | 185 | 12.9 | 22.5 | 0.00 | 0.00 | 0.00 | 74 | 1028.0 |
| 20260507154025 | 29 | 139 | 14.5 | 22.5 | 0.00 | 0.00 | 0.00 | 75 | 1027.8 |
| 20260507153010 | 29 | 202 | 14.5 | 22.5 | 0.00 | 0.00 | 0.00 | 75 | 1028.0 |
| 20260507151955 | 28 | 202 | 12.9 | 22.5 | 0.00 | 0.00 | 0.00 | 75 | 1027.8 |
| 20260507151455 | 28 | 199 | 14.5 | 22.5 | 0.00 | 0.00 | 0.00 | 75 | 1028.0 |
| 20260507150955 | 28 | 168 | 14.5 | 22.5 | 0.00 | 0.00 | 0.00 | 76 | 1027.7 |
| 20260507150455 | 29 | 133 | 14.5 | 22.5 | 0.00 | 0.00 | 0.00 | 74 | 1027.8 |
| 20260507145954 | 29 | 156 | 12.9 | 22.5 | 0.00 | 0.00 | 0.00 | 73 | 1028.0 |
| 20260507145454 | 29 | 153 | 11.3 | 22.5 | 0.00 | 0.00 | 0.00 | 73 | 1027.7 |
| 20260507144954 | 29 | 82 | 12.9 | 22.5 | 0.00 | 0.00 | 0.00 | 72 | 1027.9 |
| 20260507144454 | 29 | 154 | 12.9 | 25.7 | 0.00 | 0.00 | 0.00 | 72 | 1027.8 |
| 20260507143954 | 29 | 143 | 12.9 | 25.7 | 0.00 | 0.00 | 0.00 | 74 | 1028.0 |
| 20260507142939 | 29 | 137 | 12.9 | 25.7 | 0.00 | 0.00 | 0.00 | 74 | 1027.4 |
| 20260507142438 | 28 | 155 | 12.9 | 25.7 | 0.00 | 0.00 | 0.00 | 75 | 1027.8 |
| 20260507141939 | 28 | 146 | 14.5 | 25.7 | 0.00 | 0.00 | 0.00 | 73 | 1027.8 |
| 20260507141437 | 27 | 157 | 14.5 | 25.7 | 0.00 | 0.00 | 0.00 | 77 | 1027.5 |
| 20260507140938 | 28 | 161 | 16.1 | 25.7 | 0.00 | 0.00 | 0.00 | 75 | 1027.8 |
| 20260507140438 | 28 | 160 | 12.9 | 22.5 | 0.00 | 0.00 | 0.00 | 75 | 1027.5 |
| 20260507135938 | 29 | 186 | 12.9 | 22.5 | 0.00 | 0.00 | 0.00 | 75 | 1027.6 |
| 20260507135438 | 30 | 184 | 11.3 | 22.5 | 0.00 | 0.00 | 0.00 | 75 | 1027.7 |
| 20260507134422 | 29 | 201 | 12.9 | 22.5 | 0.00 | 0.00 | 0.00 | 76 | 1027.6 |
| 20260507133922 | 28 | 223 | 12.9 | 20.9 | 0.00 | 0.00 | 0.00 | 76 | 1027.7 |
| 20260507133421 | 28 | 220 | 12.9 | 20.9 | 0.00 | 0.00 | 0.00 | 76 | 1027.5 |
| 20260507132921 | 28 | 224 | 16.1 | 20.9 | 0.00 | 0.00 | 0.00 | 76 | 1027.6 |
| 20260507132421 | 28 | 220 | 14.5 | 20.9 | 0.00 | 0.00 | 0.00 | 75 | 1027.7 |
| 20260507131921 | 28 | 158 | 11.3 | 20.9 | 0.00 | 0.00 | 0.00 | 76 | 1027.7 |
| 20260507130906 | 28 | 202 | 11.3 | 20.9 | 0.00 | 0.00 | 0.00 | 76 | 1028.0 |
| 20260507125851 | 28 | 179 | 11.3 | 22.5 | 0.00 | 0.00 | 0.00 | 76 | 1027.7 |
| 20260507124835 | 28 | 177 | 11.3 | 22.5 | 0.00 | 0.00 | 0.00 | 79 | 1027.6 |
| 20260507124335 | 27 | 182 | 9.7 | 20.9 | 0.00 | 0.00 | 0.00 | 80 | 1027.6 |
| 20260507123835 | 27 | 220 | 11.3 | 20.9 | 0.00 | 0.00 | 0.00 | 79 | 1027.9 |
| 20260507123335 | 27 | 207 | 11.3 | 20.9 | 0.00 | 0.00 | 0.00 | 78 | 1027.6 |
| 20260507122835 | 28 | 187 | 12.9 | 22.5 | 0.00 | 0.00 | 0.00 | 78 | 1027.8 |
| 20260507122335 | 27 | 221 | 11.3 | 22.5 | 0.00 | 0.00 | 0.00 | 79 | 1027.9 |
| 20260507121835 | 27 | 205 | 11.3 | 22.5 | 0.00 | 0.00 | 0.00 | 79 | 1027.8 |
| 20260507121335 | 27 | 234 | 12.9 | 22.5 | 0.00 | 0.00 | 0.00 | 79 | 1027.8 |
| 20260507115805 | 27 | 186 | 11.3 | 20.9 | 0.00 | 0.00 | 0.00 | 80 | 1027.8 |
| 20260507115307 | 27 | 179 | 11.3 | 20.9 | 0.00 | 0.00 | 0.00 | 80 | 1027.9 |
| 20260507114805 | 27 | 195 | 12.9 | 20.9 | 0.00 | 0.00 | 0.00 | 81 | 1027.8 |
| 20260507114305 | 27 | 200 | 12.9 | 20.9 | 0.00 | 0.00 | 0.00 | 81 | 1027.8 |
| 20260507113248 | 26 | 126 | 9.7 | 19.3 | 0.00 | 0.00 | 0.00 | 84 | 1027.6 |
| 20260507112748 | 26 | 176 | 8.0 | 19.3 | 0.00 | 0.00 | 0.00 | 85 | 1027.9 |
| 20260507112248 | 26 | 176 | 8.0 | 19.3 | 0.00 | 0.00 | 0.00 | 84 | 1027.7 |
| 20260507111748 | 26 | 169 | 6.4 | 19.3 | 0.00 | 0.00 | 0.00 | 85 | 1027.6 |
| 20260507110733 | 26 | 153 | 4.8 | 19.3 | 0.00 | 0.00 | 0.00 | 84 | 1027.5 |
| 20260507110232 | 26 | 130 | 6.4 | 19.3 | 0.00 | 0.00 | 0.00 | 84 | 1027.6 |
| 20260507105217 | 26 | 147 | 8.0 | 19.3 | 0.00 | 0.00 | 0.00 | 86 | 1027.7 |
| 20260507104717 | 26 | 178 | 8.0 | 19.3 | 0.00 | 0.00 | 0.00 | 85 | 1027.6 |
| 20260507104217 | 26 | 223 | 9.7 | 19.3 | 0.00 | 0.00 | 0.00 | 84 | 1027.5 |
| 20260507103717 | 26 | 220 | 8.0 | 19.3 | 0.00 | 0.00 | 0.00 | 85 | 1027.7 |
| 20260507103217 | 26 | 237 | 9.7 | 19.3 | 0.00 | 0.00 | 0.00 | 86 | 1027.3 |
| 20260507102717 | 26 | 166 | 9.7 | 19.3 | 0.00 | 0.00 | 0.00 | 86 | 1027.3 |
| 20260507102217 | 25 | 121 | 4.8 | 19.3 | 0.00 | 0.00 | 0.00 | 86 | 1027.3 |
| 20260507101717 | 25 | 156 | 8.0 | 19.3 | 0.00 | 0.00 | 0.00 | 86 | 1027.2 |
| 20260507101217 | 25 | 120 | 4.8 | 19.3 | 0.00 | 0.00 | 0.00 | 86 | 1027.4 |
| 20260507100717 | 25 | 192 | 6.4 | 19.3 | 0.00 | 0.00 | 0.00 | 86 | 1027.4 |
| 20260507100217 | 25 | 154 | 4.8 | 19.3 | 0.00 | 0.00 | 0.00 | 86 | 1027.3 |
| 20260507095717 | 25 | 187 | 6.4 | 19.3 | 0.00 | 0.00 | 0.00 | 86 | 1027.1 |
| 20260507095217 | 25 | 163 | 6.4 | 19.3 | 0.00 | 0.00 | 0.00 | 86 | 1027.5 |
| 20260507094202 | 25 | 157 | 6.4 | 19.3 | 0.00 | 0.00 | 0.00 | 86 | 1027.0 |
| 20260507093702 | 25 | 206 | 6.4 | 19.3 | 0.00 | 0.00 | 0.00 | 86 | 1027.2 |
| 20260507093201 | 25 | 216 | 9.7 | 20.9 | 0.00 | 0.00 | 0.00 | 86 | 1026.9 |
| 20260507092146 | 25 | 213 | 9.7 | 20.9 | 0.00 | 0.00 | 0.00 | 87 | 1026.7 |
| 20260507091646 | 25 | 230 | 9.7 | 19.3 | 0.00 | 0.00 | 0.00 | 87 | 1026.9 |
| 20260507091146 | 25 | 173 | 6.4 | 19.3 | 0.00 | 0.00 | 0.00 | 86 | 1027.0 |
| 20260507090646 | 25 | 167 | 9.7 | 19.3 | 0.00 | 0.00 | 0.00 | 86 | 1026.5 |
| 20260507090146 | 25 | 155 | 8.0 | 19.3 | 0.00 | 0.00 | 0.00 | 87 | 1026.8 |
| 20260507085646 | 25 | 156 | 8.0 | 19.3 | 0.00 | 0.00 | 0.00 | 87 | 1026.5 |
| 20260507084631 | 25 | 190 | 9.7 | 19.3 | 0.00 | 0.00 | 0.00 | 87 | 1026.6 |
| 20260507084131 | 25 | 181 | 9.7 | 19.3 | 0.00 | 0.00 | 0.00 | 87 | 1026.5 |
| 20260507083631 | 25 | 184 | 11.3 | 19.3 | 0.00 | 0.00 | 0.00 | 87 | 1026.7 |
| 20260507083131 | 25 | 201 | 11.3 | 19.3 | 0.00 | 0.00 | 0.00 | 87 | 1027.0 |
| 20260507082116 | 25 | 222 | 9.7 | 19.3 | 0.00 | 0.00 | 0.00 | 87 | 1026.9 |
| 20260507081616 | 25 | 197 | 9.7 | 19.3 | 0.00 | 0.00 | 0.00 | 86 | 1026.5 |
| 20260507081115 | 25 | 236 | 8.0 | 19.3 | 0.00 | 0.00 | 0.00 | 86 | 1026.5 |
| 20260507080615 | 25 | 191 | 8.0 | 19.3 | 0.00 | 0.00 | 0.00 | 86 | 1026.8 |
| 20260507080115 | 25 | 180 | 6.4 | 19.3 | 0.00 | 0.00 | 0.00 | 86 | 1026.8 |
| 20260507075615 | 25 | 184 | 8.0 | 19.3 | 0.00 | 0.00 | 0.00 | 86 | 1026.8 |
| 20260507075115 | 25 | 160 | 6.4 | 19.3 | 0.00 | 0.00 | 0.00 | 86 | 1026.8 |
| 20260507074615 | 25 | 241 | 11.3 | 20.9 | 0.00 | 0.00 | 0.00 | 86 | 1026.9 |
| 20260507073600 | 25 | 178 | 8.0 | 20.9 | 0.00 | 0.00 | 0.00 | 86 | 1026.8 |
| 20260507073100 | 25 | 208 | 6.4 | 20.9 | 0.00 | 0.00 | 0.00 | 86 | 1026.7 |
| 20260507072559 | 25 | 247 | 9.7 | 20.9 | 0.00 | 0.00 | 0.00 | 86 | 1026.7 |
| 20260507072059 | 25 | 193 | 8.0 | 20.9 | 0.00 | 0.00 | 0.00 | 86 | 1026.8 |
| 20260507071559 | 25 | 208 | 8.0 | 20.9 | 0.00 | 0.00 | 0.00 | 86 | 1026.8 |
| 20260507071059 | 25 | 206 | 8.0 | 20.9 | 0.00 | 0.00 | 0.00 | 85 | 1026.6 |
| 20260507070559 | 25 | 269 | 8.0 | 20.9 | 0.00 | 0.00 | 0.00 | 85 | 1026.9 |
| 20260507070059 | 25 | 178 | 4.8 | 20.9 | 0.00 | 0.00 | 0.00 | 85 | 1027.0 |
| 20260507065558 | 25 | 192 | 6.4 | 20.9 | 0.00 | 0.00 | 0.00 | 85 | 1026.8 |
| 20260507064542 | 25 | 213 | 8.0 | 20.9 | 0.00 | 0.00 | 0.00 | 85 | 1027.2 |
| 20260507064042 | 25 | 227 | 9.7 | 20.9 | 0.00 | 0.00 | 0.00 | 85 | 1027.1 |
| 20260507063542 | 25 | 199 | 8.0 | 20.9 | 0.00 | 0.00 | 0.00 | 85 | 1026.8 |
| 20260507063041 | 25 | 205 | 8.0 | 20.9 | 0.00 | 0.00 | 0.00 | 86 | 1027.3 |
| 20260507062540 | 25 | 192 | 8.0 | 20.9 | 0.00 | 0.00 | 0.00 | 86 | 1027.2 |
| 20260507062040 | 25 | 143 | 8.0 | 20.9 | 0.00 | 0.00 | 0.00 | 86 | 1027.1 |
| 20260507061540 | 25 | 188 | 8.0 | 20.9 | 0.00 | 0.00 | 0.00 | 86 | 1027.3 |
| 20260507061040 | 25 | 117 | 8.0 | 20.9 | 0.00 | 0.00 | 0.00 | 86 | 1027.4 |
| 20260507060540 | 25 | 129 | 9.7 | 20.9 | 0.00 | 0.00 | 0.00 | 85 | 1027.6 |
| 20260507060040 | 25 | 142 | 4.8 | 20.9 | 0.00 | 0.00 | 0.00 | 85 | 1027.6 |
| 20260507055540 | 25 | 125 | 4.8 | 20.9 | 0.00 | 0.00 | 0.00 | 85 | 1027.6 |
| 20260507055040 | 25 | 206 | 8.0 | 20.9 | 0.00 | 0.00 | 0.00 | 85 | 1027.9 |
| 20260507054540 | 25 | 183 | 8.0 | 20.9 | 0.00 | 0.00 | 0.00 | 85 | 1027.8 |
| 20260507053010 | 25 | 147 | 6.4 | 20.9 | 0.00 | 0.00 | 0.00 | 86 | 1027.7 |
| 20260507052510 | 25 | 191 | 8.0 | 20.9 | 0.00 | 0.00 | 0.00 | 86 | 1027.7 |
| 20260507051454 | 25 | 163 | 8.0 | 20.9 | 0.00 | 0.00 | 0.00 | 87 | 1027.9 |
| 20260507050954 | 25 | 156 | 4.8 | 20.9 | 0.00 | 0.00 | 0.00 | 87 | 1027.8 |
| 20260507050454 | 25 | 145 | 8.0 | 20.9 | 0.00 | 0.00 | 0.00 | 86 | 1027.9 |
| 20260507045954 | 26 | 163 | 6.4 | 20.9 | 0.00 | 0.00 | 0.00 | 86 | 1028.1 |
| 20260507045454 | 26 | 155 | 9.7 | 20.9 | 0.00 | 0.00 | 0.00 | 85 | 1028.2 |
| 20260507044954 | 26 | 197 | 14.5 | 20.9 | 0.00 | 0.00 | 0.00 | 85 | 1028.3 |
| 20260507043938 | 26 | 156 | 9.7 | 19.3 | 0.00 | 0.00 | 0.00 | 85 | 1028.2 |
| 20260507043438 | 26 | 157 | 9.7 | 19.3 | 0.00 | 0.00 | 0.00 | 85 | 1028.6 |
| 20260507042422 | 26 | 206 | 12.9 | 19.3 | 0.00 | 0.00 | 0.00 | 85 | 1028.7 |
| 20260507040852 | 26 | 148 | 6.4 | 19.3 | 0.00 | 0.00 | 0.00 | 85 | 1028.7 |
| 20260507040352 | 26 | 187 | 12.9 | 19.3 | 0.00 | 0.00 | 0.00 | 84 | 1028.9 |
| 20260507035852 | 26 | 167 | 9.7 | 20.9 | 0.00 | 0.00 | 0.00 | 84 | 1028.7 |
| 20260507035352 | 26 | 184 | 9.7 | 20.9 | 0.00 | 0.00 | 0.00 | 84 | 1028.9 |
| 20260507034852 | 26 | 198 | 11.3 | 20.9 | 0.00 | 0.00 | 0.00 | 84 | 1028.9 |
| 20260507034352 | 26 | 179 | 11.3 | 20.9 | 0.00 | 0.00 | 0.00 | 85 | 1028.8 |
| 20260507033337 | 26 | 179 | 12.9 | 20.9 | 0.00 | 0.00 | 0.00 | 84 | 1028.7 |
| 20260507032837 | 26 | 169 | 9.7 | 20.9 | 0.00 | 0.00 | 0.00 | 84 | 1028.9 |
| 20260507032337 | 26 | 174 | 11.3 | 22.5 | 0.00 | 0.00 | 0.00 | 84 | 1028.9 |
| 20260507031321 | 26 | 164 | 12.9 | 22.5 | 0.00 | 0.00 | 0.00 | 84 | 1029.0 |
| 20260507030821 | 26 | 154 | 9.7 | 20.9 | 0.00 | 0.00 | 0.00 | 84 | 1029.2 |
| 20260507030321 | 26 | 208 | 12.9 | 20.9 | 0.00 | 0.00 | 0.00 | 84 | 1029.0 |
| 20260507025821 | 26 | 141 | 9.7 | 20.9 | 0.00 | 0.00 | 0.00 | 84 | 1029.1 |
| 20260507024806 | 26 | 176 | 9.7 | 20.9 | 0.00 | 0.00 | 0.00 | 84 | 1029.3 |
| 20260507024306 | 26 | 174 | 11.3 | 20.9 | 0.00 | 0.00 | 0.00 | 84 | 1029.2 |
| 20260507023806 | 26 | 168 | 9.7 | 20.9 | 0.00 | 0.00 | 0.00 | 84 | 1029.4 |
| 20260507023306 | 26 | 195 | 12.9 | 19.3 | 0.00 | 0.00 | 0.00 | 84 | 1029.3 |
| 20260507022806 | 26 | 159 | 11.3 | 19.3 | 0.00 | 0.00 | 0.00 | 85 | 1029.0 |
| 20260507022306 | 26 | 164 | 9.7 | 19.3 | 0.00 | 0.00 | 0.00 | 85 | 1029.2 |
| 20260507021806 | 26 | 182 | 12.9 | 19.3 | 0.00 | 0.00 | 0.00 | 85 | 1029.1 |
| 20260507021306 | 26 | 149 | 9.7 | 24.1 | 0.00 | 0.00 | 0.00 | 85 | 1029.4 |
| 20260507020251 | 26 | 177 | 12.9 | 20.9 | 0.00 | 0.00 | 0.00 | 85 | 1029.3 |
| 20260507014720 | 26 | 111 | 9.7 | 20.9 | 0.00 | 0.00 | 0.00 | 86 | 1029.0 |
| 20260507013705 | 26 | 135 | 9.7 | 20.9 | 0.00 | 0.00 | 0.00 | 86 | 1029.2 |
| 20260507013205 | 26 | 55 | 9.7 | 22.5 | 0.00 | 0.00 | 0.00 | 86 | 1028.8 |
| 20260507012704 | 26 | 100 | 9.7 | 22.5 | 0.00 | 0.00 | 0.00 | 86 | 1028.9 |
| 20260507012205 | 26 | 140 | 9.7 | 22.5 | 0.00 | 0.00 | 0.00 | 86 | 1028.8 |
| 20260507010649 | 26 | 139 | 9.7 | 19.3 | 0.00 | 0.00 | 0.00 | 85 | 1028.7 |
| 20260507010149 | 26 | 120 | 8.0 | 19.3 | 0.00 | 0.00 | 0.00 | 86 | 1028.7 |
| 20260507005649 | 26 | 145 | 8.0 | 19.3 | 0.00 | 0.00 | 0.00 | 86 | 1028.9 |
| 20260507005148 | 26 | 157 | 11.3 | 19.3 | 0.00 | 0.00 | 0.00 | 86 | 1028.8 |
| 20260507004648 | 26 | 186 | 12.9 | 19.3 | 0.00 | 0.00 | 0.00 | 86 | 1028.6 |
| 20260507003632 | 26 | 186 | 11.3 | 19.3 | 0.00 | 0.00 | 0.00 | 86 | 1028.5 |
| 20260507003132 | 26 | 141 | 9.7 | 19.3 | 0.00 | 0.00 | 0.00 | 86 | 1028.3 |
| 20260507002633 | 26 | 141 | 11.3 | 19.3 | 0.00 | 0.00 | 0.00 | 86 | 1028.4 |
| 20260507002133 | 26 | 164 | 4.8 | 19.3 | 0.00 | 0.00 | 0.00 | 85 | 1028.1 |
| 20260507001632 | 26 | 130 | 8.0 | 19.3 | 0.00 | 0.00 | 0.00 | 85 | 1028.3 |
| 20260507001133 | 26 | 176 | 8.0 | 19.3 | 0.00 | 0.00 | 0.00 | 85 | 1028.3 |
| 20260507000632 | 26 | 175 | 9.7 | 19.3 | 0.00 | 0.00 | 0.00 | 85 | 1028.3 |
| 20260507000132 | 26 | 142 | 6.4 | 19.3 | 0.00 | 0.00 | 0.00 | 85 | 1028.3 |
| 20260506235632 | 26 | 196 | 11.3 | 19.3 | 0.00 | 0.00 | 0.00 | 85 | 1028.1 |
| 20260506235133 | 26 | 144 | 9.7 | 19.3 | 0.00 | 0.00 | 0.00 | 85 | 1028.0 |
| 20260506234633 | 26 | 154 | 8.0 | 19.3 | 0.00 | 0.00 | 0.00 | 85 | 1027.9 |
| 20260506234132 | 26 | 167 | 8.0 | 20.9 | 0.00 | 0.00 | 0.00 | 85 | 1028.0 |
| 20260506233632 | 26 | 187 | 11.3 | 20.9 | 0.00 | 0.00 | 0.00 | 85 | 1027.8 |
| 20260506233133 | 26 | 125 | 8.0 | 17.7 | 0.00 | 0.00 | 0.00 | 85 | 1027.8 |
| 20260506232633 | 26 | 116 | 4.8 | 17.7 | 0.00 | 0.00 | 0.00 | 85 | 1027.8 |
| 20260506232132 | 26 | 178 | 6.4 | 17.7 | 0.00 | 0.00 | 0.00 | 84 | 1027.8 |
| 20260506231632 | 26 | 173 | 6.4 | 17.7 | 0.00 | 0.00 | 0.00 | 84 | 1027.6 |
| 20260506231132 | 26 | 166 | 9.7 | 17.7 | 0.00 | 0.00 | 0.00 | 84 | 1027.4 |
| 20260506230632 | 26 | 153 | 8.0 | 17.7 | 0.00 | 0.00 | 0.00 | 84 | 1027.4 |
| 20260506225617 | 26 | 145 | 9.7 | 17.7 | 0.00 | 0.00 | 0.00 | 84 | 1027.3 |
| 20260506225116 | 26 | 117 | 6.4 | 20.9 | 0.00 | 0.00 | 0.00 | 84 | 1027.4 |
| 20260506224617 | 26 | 165 | 6.4 | 20.9 | 0.00 | 0.00 | 0.00 | 83 | 1027.3 |
| 20260506224116 | 26 | 147 | 6.4 | 20.9 | 0.00 | 0.00 | 0.00 | 83 | 1027.1 |
| 20260506223616 | 26 | 124 | 8.0 | 20.9 | 0.00 | 0.00 | 0.00 | 82 | 1027.1 |
| 20260506223117 | 26 | 166 | 9.7 | 20.9 | 0.00 | 0.00 | 0.00 | 82 | 1027.2 |
| 20260506222102 | 26 | 126 | 8.0 | 20.9 | 0.00 | 0.00 | 0.00 | 82 | 1027.0 |
| 20260506221602 | 26 | 110 | 9.7 | 20.9 | 0.00 | 0.00 | 0.00 | 81 | 1027.1 |
| 20260506221102 | 26 | 134 | 8.0 | 20.9 | 0.00 | 0.00 | 0.00 | 81 | 1027.0 |
| 20260506220602 | 26 | 122 | 8.0 | 20.9 | 0.00 | 0.00 | 0.00 | 81 | 1027.1 |
| 20260506215602 | 26 | 137 | 11.3 | 20.9 | 0.00 | 0.00 | 0.00 | 81 | 1026.8 |
| 20260506215102 | 26 | 151 | 8.0 | 20.9 | 0.00 | 0.00 | 0.00 | 81 | 1026.9 |
| 20260506214601 | 26 | 163 | 12.9 | 20.9 | 0.00 | 0.00 | 0.00 | 81 | 1026.9 |
| 20260506214101 | 26 | 114 | 11.3 | 20.9 | 0.00 | 0.00 | 0.00 | 81 | 1026.6 |
| 20260506213601 | 26 | 161 | 12.9 | 20.9 | 0.00 | 0.00 | 0.00 | 80 | 1026.6 |
| 20260506213059 | 27 | 122 | 9.7 | 22.5 | 0.00 | 0.00 | 0.00 | 80 | 1026.5 |
| 20260506212559 | 27 | 135 | 11.3 | 22.5 | 0.00 | 0.00 | 0.00 | 80 | 1026.4 |
| 20260506212058 | 27 | 148 | 9.7 | 22.5 | 0.00 | 0.00 | 0.00 | 80 | 1026.4 |
| 20260506211043 | 27 | 157 | 12.9 | 22.5 | 0.00 | 0.00 | 0.00 | 81 | 1026.5 |
| 20260506210028 | 27 | 136 | 12.9 | 22.5 | 0.00 | 0.00 | 0.00 | 81 | 1026.3 |
| 20260506205528 | 27 | 156 | 14.5 | 22.5 | 0.00 | 0.00 | 0.00 | 81 | 1026.5 |
| 20260506203958 | 27 | 130 | 9.7 | 22.5 | 0.00 | 0.00 | 0.00 | 82 | 1026.6 |
| 20260506203458 | 27 | 166 | 12.9 | 22.5 | 0.00 | 0.00 | 0.00 | 82 | 1026.6 |
| 20260506202957 | 27 | 90 | 11.3 | 22.5 | 0.00 | 0.00 | 0.00 | 82 | 1026.4 |
| 20260506202457 | 27 | 118 | 11.3 | 22.5 | 0.00 | 0.00 | 0.00 | 82 | 1026.2 |
| 20260506201956 | 27 | 167 | 12.9 | 22.5 | 0.00 | 0.00 | 0.00 | 82 | 1026.4 |
| 20260506201455 | 27 | 174 | 12.9 | 20.9 | 0.00 | 0.00 | 0.00 | 82 | 1026.2 |
| 20260506200955 | 27 | 163 | 9.7 | 20.9 | 0.00 | 0.00 | 0.00 | 81 | 1026.5 |
| 20260506200455 | 27 | 167 | 11.3 | 24.1 | 0.00 | 0.00 | 0.00 | 80 | 1026.4 |